{"data":{"norad_id":59389,"epoch":"2026-05-25T00:25:49.876032Z","epoch_age_seconds":73262,"freshness":"FRESH","line1":"1 59389U 24062R   26145.01793838  .00008166  00000+0  28749-3 0  9998","line2":"2 59389  53.1592 261.4410 0001773  91.9106 268.2098 15.30204175121358","mean_motion":15.30204175,"eccentricity":0.0001773,"inclination_deg":53.1592,"raan_deg":261.441,"arg_perigee_deg":91.9106,"mean_anomaly_deg":268.2098,"bstar":0.00028749,"rev_number":12135,"period_min":94.105088949976,"perigee_km":473.98750653849,"apogee_km":476.41770076194,"semimajor_km":6853.3396036502,"source":"CELESTRAK","updated_at":"2026-05-25T13:38:18.935908Z"}}